Total_Precipitation_Accumulation
0.07 0.13 0.33 0.43 0.47 0.43 0.41 0.36 0.28 0.24 0.24 0.27 0.27 0.26 0.25 0.25 0.24 0.21 0.23 0.26 0.36 0.44 0.51 0.55 0.61 0.64 0.64 0.56 0.41 0.25 0.17 0.15 0.12 0.10 0.10 0.12 0.14 0.17 0.17 0.18 0.21 0.27 0.31
0.07 0.13 0.33 0.46 0.49 0.43 0.41 0.39 0.33 0.30 0.27 0.27 0.31 0.31 0.29 0.27 0.31 0.33 0.31 0.35 0.42 0.48 0.54 0.60 0.64 0.63 0.60 0.47 0.30 0.18 0.10 0.07 0.05 0.02 0.02 0.03 0.07 0.13 0.14 0.13 0.15 0.27 0.33
0.11 0.17 0.32 0.49 0.51 0.47 0.42 0.37 0.34 0.33 0.33 0.33 0.35 0.35 0.34 0.32 0.33 0.41 0.43 0.43 0.44 0.46 0.53 0.59 0.57 0.53 0.48 0.33 0.19 0.13 0.08 0.06 0.04 0.02 0.03 0.06 0.10 0.16 0.16 0.14 0.20 0.28 0.34
0.18 0.20 0.32 0.48 0.53 0.52 0.46 0.39 0.37 0.39 0.39 0.42 0.43 0.44 0.44 0.41 0.41 0.43 0.47 0.45 0.41 0.41 0.46 0.46 0.38 0.33 0.29 0.21 0.16 0.12 0.09 0.07 0.05 0.04 0.07 0.11 0.14 0.24 0.25 0.23 0.23 0.24 0.27
0.30 0.28 0.39 0.53 0.61 0.60 0.53 0.45 0.43 0.44 0.45 0.47 0.50 0.56 0.57 0.57 0.55 0.51 0.48 0.43 0.38 0.34 0.30 0.25 0.23 0.21 0.20 0.17 0.14 0.10 0.07 0.06 0.05 0.05 0.07 0.12 0.18 0.34 0.32 0.28 0.27 0.29 0.28
0.39 0.41 0.52 0.65 0.74 0.75 0.65 0.56 0.53 0.54 0.54 0.54 0.55 0.60 0.67 0.72 0.70 0.60 0.49 0.36 0.31 0.26 0.22 0.20 0.19 0.18 0.15 0.13 0.11 0.10 0.09 0.06 0.04 0.05 0.08 0.12 0.19 0.36 0.34 0.30 0.28 0.29 0.30
0.41 0.49 0.62 0.77 0.82 0.85 0.79 0.72 0.70 0.68 0.67 0.66 0.63 0.65 0.70 0.72 0.67 0.58 0.42 0.31 0.26 0.25 0.23 0.20 0.19 0.19 0.17 0.13 0.11 0.11 0.10 0.06 0.04 0.05 0.08 0.12 0.20 0.37 0.36 0.30 0.28 0.29 0.29
0.42 0.57 0.72 0.91 0.90 0.88 0.85 0.81 0.81 0.82 0.81 0.79 0.77 0.74 0.75 0.74 0.66 0.55 0.43 0.34 0.28 0.27 0.27 0.25 0.21 0.20 0.19 0.17 0.15 0.14 0.11 0.07 0.05 0.05 0.07 0.10 0.16 0.26 0.26 0.24 0.24 0.26 0.27
0.60 0.72 0.86 1.02 1.03 1.00 0.95 0.89 0.85 0.87 0.90 0.89 0.87 0.81 0.72 0.66 0.63 0.56 0.47 0.38 0.33 0.29 0.29 0.26 0.25 0.22 0.21 0.21 0.20 0.16 0.10 0.07 0.06 0.05 0.05 0.07 0.10 0.18 0.20 0.23 0.25 0.28 0.30
0.90 0.97 1.08 1.16 1.11 1.04 1.00 0.96 0.94 0.92 0.94 0.98 0.94 0.80 0.70 0.62 0.59 0.55 0.45 0.39 0.32 0.29 0.29 0.26 0.25 0.23 0.22 0.20 0.18 0.14 0.11 0.09 0.07 0.05 0.05 0.05 0.08 0.15 0.19 0.24 0.26 0.28 0.31
1.25 1.26 1.30 1.33 1.29 1.18 1.09 1.04 1.04 0.98 0.97 0.99 0.95 0.80 0.71 0.69 0.63 0.53 0.41 0.33 0.30 0.29 0.28 0.27 0.26 0.23 0.20 0.17 0.15 0.15 0.14 0.12 0.10 0.09 0.08 0.08 0.12 0.19 0.24 0.28 0.26 0.27 0.29
1.44 1.42 1.42 1.41 1.36 1.31 1.22 1.14 1.16 1.06 0.97 0.96 0.86 0.82 0.78 0.72 0.64 0.52 0.44 0.38 0.33 0.30 0.30 0.31 0.31 0.28 0.22 0.15 0.14 0.14 0.14 0.13 0.13 0.12 0.11 0.12 0.18 0.27 0.29 0.29 0.26 0.26 0.27
1.62 1.59 1.60 1.57 1.49 1.37 1.38 1.25 1.20 1.15 1.04 0.99 0.88 0.86 0.85 0.83 0.75 0.69 0.60 0.58 0.50 0.39 0.37 0.35 0.36 0.27 0.19 0.15 0.13 0.12 0.12 0.14 0.14 0.13 0.11 0.11 0.17 0.28 0.32 0.33 0.31 0.29 0.28
1.96 1.75 1.77 1.72 1.67 1.52 1.42 1.36 1.30 1.23 1.13 1.00 0.87 0.84 0.87 0.82 0.74 0.67 0.58 0.56 0.57 0.44 0.40 0.37 0.31 0.24 0.19 0.16 0.14 0.13 0.12 0.12 0.12 0.13 0.13 0.12 0.14 0.23 0.31 0.35 0.35 0.33 0.31
2.25 2.04 1.97 1.83 1.74 1.64 1.49 1.38 1.36 1.35 1.26 1.12 1.06 0.95 0.89 0.80 0.67 0.60 0.55 0.56 0.55 0.48 0.40 0.37 0.30 0.26 0.24 0.21 0.17 0.14 0.13 0.12 0.11 0.12 0.12 0.13 0.13 0.15 0.24 0.31 0.37 0.40 0.43
2.44 2.40 2.29 2.10 1.93 1.80 1.61 1.41 1.34 1.40 1.39 1.35 1.21 1.03 1.02 0.94 0.80 0.66 0.60 0.58 0.55 0.51 0.46 0.41 0.34 0.32 0.30 0.27 0.20 0.16 0.14 0.13 0.13 0.12 0.12 0.13 0.13 0.12 0.16 0.25 0.34 0.43 0.50
2.41 2.56 2.56 2.39 2.24 2.05 1.85 1.65 1.43 1.47 1.49 1.46 1.33 1.16 1.13 1.12 1.02 0.87 0.72 0.62 0.54 0.53 0.53 0.53 0.49 0.44 0.38 0.33 0.26 0.21 0.18 0.16 0.15 0.13 0.13 0.13 0.13 0.12 0.13 0.19 0.28 0.37 0.45
2.43 2.49 2.62 2.60 2.51 2.37 2.16 1.94 1.66 1.56 1.55 1.48 1.37 1.26 1.17 1.15 1.11 1.04 0.88 0.74 0.65 0.63 0.62 0.61 0.57 0.53 0.46 0.40 0.34 0.30 0.26 0.23 0.18 0.18 0.16 0.14 0.13 0.12 0.12 0.15 0.20 0.26 0.35
2.40 2.46 2.61 2.67 2.70 2.72 2.61 2.43 2.10 1.81 1.75 1.66 1.51 1.34 1.25 1.21 1.18 1.11 1.00 0.86 0.81 0.77 0.68 0.63 0.61 0.55 0.52 0.50 0.47 0.41 0.35 0.30 0.27 0.26 0.24 0.21 0.19 0.17 0.15 0.14 0.16 0.20 0.25
2.60 2.68 2.69 2.80 2.95 3.04 3.11 2.95 2.72 2.30 2.01 1.83 1.65 1.51 1.39 1.31 1.26 1.22 1.14 1.04 0.97 0.96 0.88 0.78 0.70 0.65 0.59 0.54 0.53 0.51 0.47 0.41 0.35 0.32 0.29 0.27 0.25 0.22 0.21 0.21 0.20 0.19 0.20
2.70 2.83 2.87 2.83 3.01 3.24 3.13 2.92 2.68 2.42 2.21 1.99 1.83 1.68 1.57 1.47 1.39 1.30 1.18 1.15 1.11 1.07 1.04 1.00 0.95 0.89 0.81 0.77 0.76 0.66 0.54 0.49 0.45 0.38 0.35 0.33 0.30 0.28 0.26 0.26 0.26 0.25 0.25
2.50 2.80 2.83 2.92 3.06 3.23 3.12 3.02 2.95 2.80 2.58 2.34 2.16 1.87 1.67 1.55 1.46 1.43 1.31 1.17 1.14 1.12 1.08 1.09 1.10 1.10 1.06 1.04 1.04 1.00 0.83 0.65 0.49 0.40 0.38 0.38 0.37 0.38 0.37 0.35 0.35 0.34 0.32
1.98 2.39 2.58 2.65 2.86 3.02 3.20 3.48 3.48 3.31 2.90 2.43 2.14 1.98 1.82 1.77 1.67 1.55 1.53 1.42 1.26 1.19 1.08 1.01 0.99 1.03 1.06 1.08 1.10 1.18 1.08 0.84 0.63 0.49 0.40 0.37 0.38 0.41 0.40 0.39 0.38 0.38 0.36
1.59 1.94 2.29 2.51 2.65 2.71 2.83 3.13 3.27 3.14 2.74 2.35 2.10 2.07 2.09 2.00 1.94 1.86 1.74 1.67 1.52 1.38 1.25 1.16 1.09 1.06 1.09 1.09 1.07 1.03 1.00 0.89 0.85 0.68 0.49 0.42 0.40 0.40 0.42 0.41 0.38 0.37 0.40
1.32 1.68 1.99 2.24 2.46 2.51 2.47 2.62 2.88 3.03 2.92 2.72 2.46 2.30 2.20 2.12 1.99 1.94 1.88 1.82 1.69 1.57 1.48 1.43 1.34 1.27 1.24 1.18 1.13 1.07 1.05 0.95 0.88 0.88 0.67 0.47 0.47 0.47 0.49 0.50 0.48 0.45 0.46
1.11 1.35 1.64 1.89 2.22 2.40 2.37 2.44 2.54 2.64 2.76 2.71 2.46 2.39 2.29 2.24 2.11 1.95 1.89 1.87 1.81 1.75 1.67 1.62 1.60 1.50 1.40 1.33 1.27 1.20 1.21 1.16 1.01 1.01 0.93 0.70 0.63 0.56 0.57 0.59 0.61 0.62 0.61